DW1289 Weather Reports


time (UTC)temp
C
wind
direction
speed
KPH
gust
KPH
rain 1hr
cm
rain 24hr
cm
rain mn
cm
humidity
%
barometer
mb
20260903062016 25 0.0 0.0 0.00 0.00 0.00 86 1016.6
20260903061016 25 0.0 0.0 0.00 0.00 0.00 86 1016.4
20260903060016 25 0.0 0.0 0.00 0.00 0.00 85 1016.6
20260903055016 25 0.0 0.0 0.00 0.00 0.00 85 1016.5
20260903054016 25 0.0 0.0 0.00 0.00 0.00 85 1016.6
20260903053016 25 0.0 0.0 0.00 0.00 0.00 85 1016.5
20260903052016 26 0.0 0.0 0.00 0.00 0.00 84 1016.5
20260903051016 26 0.0 0.0 0.00 0.00 0.00 84 1016.5
20260903050016 26 0.0 0.0 0.00 0.00 0.00 84 1016.5
20260903045016 26 0.0 0.0 0.00 0.00 0.00 83 1016.6
20260903044016 26 0.0 0.0 0.00 0.00 0.00 83 1016.6
20260903043036 26 0.0 0.0 0.00 0.00 0.00 83 1016.5
20260903042016 26 0.0 0.0 0.00 0.00 0.00 83 1016.5
20260903041036 26 0.0 0.0 0.00 0.00 0.00 83 1016.4
20260903040016 27 0.0 0.0 0.00 0.00 0.00 82 1016.5
20260903035016 27 0.0 0.0 0.00 0.00 0.00 82 1016.5
20260903033016 27 0.0 0.0 0.00 0.00 0.00 81 1016.4
20260903032016 27 0.0 0.0 0.00 0.00 0.00 81 1016.3
20260903031016 27 0.0 0.0 0.00 0.00 0.00 80 1016.4
20260903030016 27 0.0 0.0 0.00 0.00 0.00 79 1016.5
20260903025016 27 0.0 0.0 0.00 0.00 0.00 78 1016.4
20260903024036 27 0.0 0.0 0.00 0.00 0.00 78 1016.4
20260903023016 28 0.0 0.0 0.00 0.00 0.00 77 1016.2
20260903022016 28 0.0 0.0 0.00 0.00 0.00 76 1016.3
20260903021016 28 0.0 0.0 0.00 0.00 0.00 75 1016.4
20260903020016 28 0.0 0.0 0.00 0.00 0.00 75 1016.4
20260903015016 28 0.0 0.0 0.00 0.00 0.00 75 1016.3
20260903014016 29 0.0 0.0 0.00 0.00 0.00 75 1016.3
20260903013036 29 0.0 0.0 0.00 0.00 0.00 75 1016.1
20260903012036 29 0.0 0.0 0.00 0.00 0.00 73 1016.0
20260903011016 29 0.0 0.0 0.00 0.00 0.00 73 1015.9
20260903010016 29 0.0 0.0 0.00 0.00 0.00 73 1015.9
20260903005016 30 0.0 0.0 0.00 0.00 0.00 72 1015.9
20260903004016 30 0.0 1.6 0.00 0.00 0.00 71 1015.9
20260903003016 31 0.0 0.0 0.00 0.00 0.00 69 1015.9
20260903002016 31 0.0 0.0 0.00 0.00 0.00 67 1015.9
20260903001016 32 0.0 0.0 0.00 0.00 0.00 64 1015.9
20260903000016 32 0.0 1.6 0.00 0.00 0.00 61 1015.8
20260902235016 33 248 1.6 4.8 0.00 0.00 0.00 55 1015.7
20260902234016 33 248 3.2 8.0 0.00 0.00 0.00 53 1015.9
20260902233016 33 248 3.2 9.7 0.00 0.00 0.00 52 1015.8
20260902232016 34 248 3.2 6.4 0.00 0.00 0.00 51 1015.9
20260902231016 34 248 4.8 9.7 0.00 0.00 0.00 51 1015.9
20260902230016 34 248 4.8 11.3 0.00 0.00 0.00 51 1015.9
20260902225016 35 248 4.8 9.7 0.00 0.00 0.00 50 1016.0
20260902224016 35 248 4.8 11.3 0.00 0.00 0.00 51 1016.0
20260902223016 35 248 4.8 9.7 0.00 0.00 0.00 50 1015.9
20260902222056 35 248 4.8 12.9 0.00 0.00 0.00 50 1016.2
20260902221016 35 248 4.8 14.5 0.00 0.00 0.00 51 1016.2
20260902220056 35 248 6.4 12.9 0.00 0.00 0.00 49 1016.1
20260902215016 35 248 4.8 11.3 0.00 0.00 0.00 49 1016.1
20260902214016 35 248 4.8 12.9 0.00 0.00 0.00 49 1016.3
20260902213016 36 270 4.8 16.1 0.00 0.00 0.00 50 1016.3
20260902212016 36 248 4.8 12.9 0.00 0.00 0.00 50 1016.5
20260902211016 36 248 4.8 12.9 0.00 0.00 0.00 50 1016.5
20260902210016 36 248 4.8 16.1 0.00 0.00 0.00 49 1016.7
20260902205016 36 248 6.4 12.9 0.00 0.00 0.00 49 1016.7
20260902204036 36 248 6.4 19.3 0.00 0.00 0.00 48 1016.7
20260902203016 36 248 8.0 17.7 0.00 0.00 0.00 49 1016.6
20260902202036 36 248 8.0 17.7 0.00 0.00 0.00 47 1017.0
20260902201036 36 248 6.4 14.5 0.00 0.00 0.00 47 1017.1
20260902200016 36 248 8.0 16.1 0.00 0.00 0.00 48 1017.2
20260902195036 36 248 6.4 17.7 0.00 0.00 0.00 48 1017.2
20260902194016 36 248 4.8 17.7 0.00 0.00 0.00 47 1017.3
20260902193016 36 248 3.2 11.3 0.00 0.00 0.00 50 1017.4
20260902192016 36 248 6.4 17.7 0.00 0.00 0.00 49 1017.5
20260902191016 36 248 6.4 14.5 0.00 0.00 0.00 48 1017.5
20260902190016 36 248 4.8 14.5 0.00 0.00 0.00 50 1017.7
20260902185016 36 225 4.8 14.5 0.00 0.00 0.00 52 1017.7
20260902184017 36 248 6.4 12.9 0.00 0.00 0.00 52 1017.8
20260902183016 36 248 4.8 12.9 0.00 0.00 0.00 54 1017.9
20260902182036 36 248 4.8 12.9 0.00 0.00 0.00 51 1017.9
20260902181016 35 270 4.8 16.1 0.00 0.00 0.00 53 1017.9
20260902180016 35 248 3.2 14.5 0.00 0.00 0.00 51 1018.0
20260902175016 35 248 4.8 11.3 0.00 0.00 0.00 55 1018.1
20260902174016 36 270 4.8 14.5 0.00 0.00 0.00 50 1018.2
20260902173056 36 248 6.4 14.5 0.00 0.00 0.00 50 1018.5
20260902172016 36 248 6.4 14.5 0.00 0.00 0.00 52 1018.6
20260902171016 36 248 6.4 12.9 0.00 0.00 0.00 51 1018.6
20260902170016 36 248 6.4 12.9 0.00 0.00 0.00 51 1018.7
20260902165036 36 248 6.4 12.9 0.00 0.00 0.00 52 1019.0
20260902164016 36 248 3.2 11.3 0.00 0.00 0.00 51 1019.1
20260902163016 35 248 4.8 12.9 0.00 0.00 0.00 55 1019.1
20260902162016 35 248 6.4 12.9 0.00 0.00 0.00 55 1019.1
20260902161016 35 248 6.4 14.5 0.00 0.00 0.00 56 1019.1
20260902160016 35 248 4.8 11.3 0.00 0.00 0.00 54 1019.2
20260902155016 34 248 4.8 12.9 0.00 0.00 0.00 56 1019.3
20260902154016 34 248 4.8 16.1 0.00 0.00 0.00 60 1019.3
20260902153016 33 248 4.8 14.5 0.00 0.00 0.00 60 1019.4
20260902152056 33 248 4.8 11.3 0.00 0.00 0.00 61 1019.3
20260902151016 33 248 4.8 12.9 0.00 0.00 0.00 63 1019.3
20260902150016 32 248 3.2 12.9 0.00 0.00 0.00 65 1019.3
20260902145016 32 225 1.6 8.0 0.00 0.00 0.00 68 1019.4
20260902144016 31 0.0 0.0 0.00 0.00 0.00 71 1019.5
20260902143016 31 0.0 0.0 0.00 0.00 0.00 72 1019.3
20260902142036 30 0.0 0.0 0.00 0.00 0.00 75 1019.3
20260902141016 29 0.0 0.0 0.00 0.00 0.00 76 1019.4
20260902140016 28 0.0 0.0 0.00 0.00 0.00 78 1019.4
20260902135016 28 0.0 0.0 0.00 0.00 0.00 80 1019.3
20260902134016 27 0.0 0.0 0.00 0.00 0.00 83 1019.4
20260902133016 26 0.0 0.0 0.00 0.00 0.00 87 1019.4
20260902132016 25 0.0 0.0 0.00 0.00 0.00 89 1019.3
20260902131016 25 0.0 0.0 0.00 0.00 0.00 92 1019.3
20260902130016 24 0.0 0.0 0.00 0.00 0.00 93 1019.3
20260902125016 23 0.0 0.0 0.00 0.00 0.00 93 1019.3
20260902124016 23 0.0 0.0 0.00 0.00 0.00 93 1019.2
20260902123036 23 0.0 0.0 0.00 0.00 0.00 93 1019.2
20260902122036 23 0.0 0.0 0.00 0.00 0.00 93 1019.1
20260902121016 23 0.0 0.0 0.00 0.00 0.00 93 1018.9
20260902120036 23 0.0 0.0 0.00 0.00 0.00 93 1019.0
20260902115016 23 0.0 0.0 0.00 0.00 0.00 93 1019.0
20260902114016 22 0.0 0.0 0.00 0.00 0.00 93 1018.7
20260902113016 22 0.0 0.0 0.00 0.00 0.00 93 1018.7
20260902112016 22 0.0 0.0 0.00 0.00 0.00 93 1018.6
20260902111016 22 0.0 0.0 0.00 0.00 0.00 93 1018.6
20260902110016 22 0.0 0.0 0.00 0.00 0.00 93 1018.6
20260902105016 22 0.0 0.0 0.00 0.00 0.00 92 1018.5
20260902104016 22 0.0 0.0 0.00 0.00 0.00 92 1018.4
20260902103016 22 0.0 0.0 0.00 0.00 0.00 92 1018.3
20260902102016 23 0.0 0.0 0.00 0.00 0.00 92 1018.2
20260902101016 23 0.0 0.0 0.00 0.00 0.00 92 1018.1
20260902100056 23 0.0 0.0 0.00 0.00 0.00 92 1018.1
20260902095016 23 0.0 0.0 0.00 0.00 0.00 92 1018.1
20260902094016 23 0.0 0.0 0.00 0.00 0.00 92 1018.1
20260902093036 23 0.0 0.0 0.00 0.00 0.00 92 1017.9
20260902092016 23 0.0 0.0 0.00 0.00 0.00 92 1017.9
20260902091016 23 0.0 0.0 0.00 0.00 0.00 92 1017.6
20260902090016 23 0.0 0.0 0.00 0.00 0.00 92 1017.6
20260902085016 23 0.0 0.0 0.00 0.00 0.00 92 1017.6
20260902084016 23 0.0 0.0 0.00 0.00 0.00 91 1017.6
20260902083016 23 0.0 0.0 0.00 0.00 0.00 91 1017.7
20260902082016 23 0.0 0.0 0.00 0.00 0.00 91 1017.8
20260902081016 23 0.0 0.0 0.00 0.00 0.00 91 1017.6
20260902080016 23 0.0 0.0 0.00 0.00 0.00 91 1017.6
20260902075016 23 0.0 0.0 0.00 0.00 0.00 91 1017.5
20260902074016 23 0.0 0.0 0.00 0.00 0.00 90 1017.5
20260902073016 23 0.0 0.0 0.00 0.00 0.00 90 1017.4
20260902072016 23 0.0 0.0 0.00 0.00 0.00 90 1017.5
20260902071016 24 0.0 0.0 0.00 0.00 0.00 90 1017.5
20260902070016 24 0.0 0.0 0.00 0.00 0.00 89 1017.5
20260902065016 24 0.0 0.0 0.00 0.00 0.00 89 1017.5
20260902064016 24 0.0 0.0 0.00 0.00 0.00 89 1017.5
20260902063016 24 0.0 0.0 0.00 0.00 0.00 88 1017.6